Regional Weather Roundup
Issued by NWS

Home | Current Version | Previous Version | Text Only | Print | Product List | Glossary On
Versions: 1 2 3 4 5 6 7 8 9 10 11 12 13 14 15 16 17 18 19 20 21 22 23 24 25 26 27 28 29 30 31 32 33 34 35 36 37 38 39 40 41 42 43 44 45 46 47 48 49 50
000
ASHW40 PHFO 030810
RWRHI

WEATHER ROUNDUP FOR HAWAII
NATIONAL WEATHER SERVICE HONOLULU HI
1000 PM HST THU JUL 02 2015

THIS IS AN AUTOMATED REPORT THAT HAS NOT BEEN QUALITY CONTROLLED.

NOTE..."FAIR" INDICATES FEW OR NO CLOUDS BELOW 12,000 FEET WITH NO
SIGNIFICANT WEATHER AND/OR OBSTRUCTIONS TO VISIBILITY.

* - THESE SITES REPORT LIMITED FIELDS

HIZ001>004-030900-
KAUAI-NIIHAU-

CITY           SKY/WX    TMP DP  RH WIND       PRES   REMARKS
LIHUE APT      MOCLDY    77  70  79 W5        29.95R
PORT ALLEN*    NOT AVBL
POIPU*           N/A     73 N/A N/A VRB2        N/A
PRINCEVILLE*     N/A     77 N/A N/A MISG        N/A
KOKOLE POINT*  NOT AVBL
MOLOAA DAIRY*  NOT AVBL
WAIMEA HTS*    NOT AVBL
PUU OPAE*      NOT AVBL
PUU LUA*       NOT AVBL
MAKAHA RIDGE*  NOT AVBL
$$

HIZ005>011-030900-
OAHU-

CITY           SKY/WX    TMP DP  RH WIND       PRES   REMARKS
HONOLULU       PTCLDY    81  72  74 SE3       29.93R
KALAELOA       MOCLDY    78  69  73 CALM      29.94R
KANEOHE MCB    PTCLDY    79  72  79 SE7       29.91R
WHEELER FIELD  FAIR      74  66  77 NW2       29.94R
BELLOWS*       NOT AVBL
KAHUKU*        NOT AVBL
WHEELER*       NOT AVBL
WAIANAE HARBOR NOT AVBL
DILLINGHAM*      N/A     75  66  73 MISG        N/A
KAHUKU TRN*      N/A     75  72  88 E3G13       N/A
KAWAILOA*        N/A     73  68  83 E2G9        N/A
KII*             N/A     81  75  83 E9          N/A
MAKUA RANGE*     N/A     75  63  64 E5          N/A
OAHU FOREST NW NOT AVBL
SCHOFIELD BRK*   N/A     72  68  88 MISG        N/A
SCHOFIELD S*   NOT AVBL
WAIANAE VLY*   NOT AVBL
KUAOKALA*      NOT AVBL
HONOULIUULI*   NOT AVBL
MOKUOLOE IS*   NOT AVBL
PALEHUA*       NOT AVBL
WAIAWA PHB*    NOT AVBL
$$

HIZ012>013-030900-
MOLOKAI-

CITY           SKY/WX    TMP DP  RH WIND       PRES   REMARKS
MOLOKAI AIRPT  CLEAR     75  70  84 NW3       29.95R
KALAUPAPA      NOT AVBL
MAKAPULAPAI*   NOT AVBL
MOLOKAI 1*     NOT AVBL
PUU ALII*      NOT AVBL
$$

HIZ016-030900-
KAHOOLAWE-

CITY           SKY/WX    TMP DP  RH WIND       PRES   REMARKS
KAHOOLAWE*     NOT AVBL
HAKIOAWA*      NOT AVBL
HONOKANAIA*      N/A     79  70  74 NE12G21   29.94R
KANELOA*         N/A     75  70  83 E16G26    29.99R
KEALIALALO*    NOT AVBL
LUA MAKIKA*    NOT AVBL
$$

HIZ014>015-030900-
LANAI-

CITY           SKY/WX    TMP DP  RH WIND       PRES   REMARKS
LANAI CITY     FAIR      72  70  93 NW3       30.00R
LANAI 1*       NOT AVBL
$$

HIZ017>028-030900-
MAUI-

CITY           SKY/WX    TMP DP  RH WIND       PRES   REMARKS
KAHULUI        CLEAR     79  71  76 W7        29.93R
KAPALUA-W MAUI NOT AVBL
HANA AIRPORT   PTCLDY    75  72  88 SE5       29.97S
HANA*          NOT AVBL
HALEAKALA SUMM   N/A     48  28  46 SE9         N/A
MAALAEA BAY*   NOT AVBL
HALEAKALA*     NOT AVBL
KAUPO GAP*     NOT AVBL
KULA 1*          N/A     55  44  66 E3          N/A
$$

HIZ023>026-030900-
BIG ISLAND OF HAWAII COAST AND LOWER SLOPES-

CITY           SKY/WX    TMP DP  RH WIND       PRES   REMARKS
KAILUA KONA    CLEAR     81  74  79 S13       29.90R
HILO           CLOUDY    77  71  82 S5        29.95R
HONOKAA*       NOT AVBL
KAWAIHAE MWT*  NOT AVBL
KAWAIHAE*        N/A     81 N/A N/A NW3         N/A
SOUTH POINT*   NOT AVBL
UPOLU AIRPORT* NOT AVBL
KAMUELA*       CLOUDY    66  63  88 CALM      30.05S
HAKALAU*         N/A     52  42  68 SW7         N/A
KALOKO-HONOKO* NOT AVBL
PALI 2*          N/A     66  63  88 NE8G14      N/A
KEALAKOMO*       N/A     73  64  73 NE8         N/A
KAUPULEHU*     NOT AVBL
KAPAPALA*        N/A     71  68  91 NE2         N/A
LOWER KAHUKU*  NOT AVBL
PUHE CS*       NOT AVBL
PUHO CS*       NOT AVBL
PTA KEAMUKU*     N/A     64  61  88 CALM        N/A
WAIKOLOA*      NOT AVBL
$$

HIZ027>028-030900-
BIG ISLAND OF HAWAII INTERIOR AND SUMMMITS-

CITY           SKY/WX    TMP DP  RH WIND       PRES   REMARKS
BRADSHAW FIELD CLEAR     58  52  80 SE1       30.29R
MK VISITOR CEN   N/A      0   0 100 MISG        N/A
MAUNA KEA*       N/A     36  27  69 CALM        N/A
MAUNA LOA*       N/A     43  36  75 MISG        N/A
MAUNA LOA 1*   NOT AVBL
PTA KIPUKA*      N/A     59  57  94 E1          N/A
PTA RANGE 17*    N/A    N/A N/A N/A S1G7        N/A
PTA WEST*        N/A     73  72  94 E2          N/A
NENE CABIN*    NOT AVBL
AHUMOA*        NOT AVBL
PTA PORTABLE*  NOT AVBL
PUU MALI*        N/A     57  52  82 SW5         N/A
$$

HIC003-030900-
NORTHWEST ISLANDS-

CITY           SKY/WX    TMP DP  RH WIND       PRES   REMARKS
MIDWAY ISLAND  PTCLDY    79  70  73 N8        29.99R
MIDWAY NOS*    NOT AVBL
FRENCH FRIGATE NOT AVBL
$$

PHZ110>124-180-030900-
BUOY REPORTS

STATION/POSITION TIME  TEMP    WIND        PRES    WAVE   SWELL
                       AIR SEA DIR/SP/G            HT/PER HT/DIR
                 (UTC) (F)     (DEG/KT/KT) (MB)    (FT/S) (FT/D)
BUOY 51001       NOT AVBL
BUOY 51101       0800   78 79  190/  6/  6 1011.7R   5/13   5/150
BUOY 51100       NOT AVBL
BUOY 51002       0800   80 81  110/ 12/ 16 1012.5R   6/12   5/200
BUOY 51003       0700   81 82  120/  6/  6 1012.5R   6/12   5
BUOY 51004       0748   79 80   70/ 14/ 17 1013.0R   7/ 8   5/ 90
BARBERS PT BUOY  NOT AVBL
WAIMEA BAY BUOY  0800      80                N/A     4/10   2/320
KAILUA BAY BUOY  0800      81                N/A     4/ 9   2/ 10
LANAI BUOY       NOT AVBL
BARBERS PT 2     0800      81                N/A     5/13   3/170
PAUWELA MAUI     0800      79                N/A     5/ 8   2/ 10
HILO             0800      79                N/A     5/ 8   2/110
KANEOHE BAY BUOY 0800      81                N/A     4/ 9   2/350
HANALEI KAUAI    0800      83                N/A     5/ 9   2/320
KAHULUI HARBOR   0800   79 82  300/  8/ 10 1013.1R
HONOLULU HARBOR  0800   81 82  320/  2/  3 1013.5R
KILO NALU        NOT AVBL
HILO HARBOR      0800   77 78  200/  3/  4 1013.9R
MOKUOLOE         0800   81 84  100/  7/ 11 1013.5S
NAWILIWILI       0800   76 81  250/  4/  4 1013.7R
WHOTS BUOY       NOT AVBL
BUOY 51028       NOT AVBL
$$

......................KEY........................................
  SKY/WX - SKY CONDITIONS/PRESENT WEATHER
  TMP    - TEMPERATURE IN FAHRENHEIT
  DWPT   - DEWPOINT IN FAHRENHEIT
  RH     - RELATIVE HUMIDITY IN PERCENT
  WIND   - DIRECTION AND SPEED /MPH FOR ISLANDS...KTS FOR BUOYS/
  PRES   - MEAN SEA LEVEL PRESSURE IN INCHES OF HG
  VSB    - VISIBILITY IN MILES
  HX     - HEAT INDEX
  WCI    - WIND CHILL INDEX
  VRB    - VARIABLE WIND DIRECTION
  N/A    - NOT AVAILABLE


USA.gov is the U.S. government's official web portal to all federal, state and local government web resources and services.